sat.trackr.live / text

‹ back to catalog

STARLINK-35113

NORAD 65697 · 2025-212X

PAYLOAD ACTIVE UNKNOWN

§ Identity

Operator
Country
US
Launch date
2025-09-21
Launch site
AFETR
Launch vehicle
Mass (kg)
RCS (m²)

Purposes: comms

External: N2YO · Heavens-Above · Gunter

§ Orbital elements

Epoch: 2026-05-24T20:41:21.818976Z

Period
93.85 min
Inclination
53.1602°
Eccentricity
0.0002021
Mean motion
15.34420181 rev/d
Perigee alt
461.3 km
Apogee alt
464.0 km
Semi-major
6,840.8 km
B*
7.0206e-4
RAAN
350.6006°
Arg perigee
101.7990°
Mean anomaly
258.3239°
Rev number
3,892

§ Raw data

STARLINK-351131 65697U 25212X   26144.86205809  .00023434  00000+0  70206-3 0  99932 65697  53.1602 350.6006 0002021 101.7990 258.3239 15.34420181 38927

JSON: /api/v1/satellites/65697 · /tle

For live sub-satellite position, see the globe view (requires WebGL).

§ Visibility from observer

Set your observer location to see the next 7 days of passes ≥ 10°. The values pass through the URL so the page stays shareable.

No JS? Fill the form by hand. The geolocation button needs JavaScript.